Newark, NJ

12:47 AM EDT on April 23, 2018 (GMT -0400)
Newark International

Weather History for KEWR - December, 2012

Change the Weather History Date:

Monday, December 24, 2012

  Actual Average Record
Temperature  
Mean Temperature 34 °F 34 °F  
Max Temperature 40 °F 41 °F 71 °F (2015)
Min Temperature 27 °F 27 °F 3 °F (1983)
Degree Days  
Heating Degree Days 31 31  
Month to date heating degree days 514 659  
Since 1 July heating degree days 1388 1527  
Cooling Degree Days 0 0  
Month to date cooling degree days 0 0  
Year to date cooling degree days 1450 1192  
Moisture  
Dew Point 25 °F    
Average Humidity 74    
Maximum Humidity 100    
Minimum Humidity 48    
Precipitation  
Precipitation 0.10 in 0.13 in 1.37 in (2003)
Month to date precipitation 2.97 3.01  
Year to date precipitation 34.26 45.45  
Snow  
Snow T in 0.20 in 7.30 in (1966)
Month to date snowfall T 3.7  
Since 1 July snowfall 6.6 4.1  
Snow Depth 0.00 in    
Sea Level Pressure  
Sea Level Pressure 30.02 in    
Wind  
Wind Speed 5 mph (North)    
Max Wind Speed 10 mph    
Max Gust Speed 16 mph    
Visibility 7 miles    
Events Rain , Snow    
T = Trace of Precipitation, MM = Missing Value Source: NWS Daily Summary

Daily Weather History Graph

Daily Weather History Graph

Search for Another Location

Airport or City:

Astronomy

Dec. 24, 2012 Rise Set
Actual Time 7:18 AM EST 4:34 PM EST
Civil Twilight 6:47 AM EST 5:05 PM EST
Nautical Twilight 6:13 AM EST 5:39 PM EST
Astronomical Twilight 5:39 AM EST 6:13 PM EST
Moon 2:00 PM EST (12/24) 3:54 AM EST (12/24)
Length of Visible Light 10h 17m
Length of Day
9h 15m
Waxing Gibbous, 88% of the Moon is Illuminated
Dec 24
Waxing Gibbous
Dec 28
Full
Jan 4
Last Quarter
Jan 11
New
Jan 18
First Quarter

Hourly Weather History & Observations

Time (EST) Temp. Windchill Dew Point Humidity Pressure Visibility Wind Dir Wind Speed Gust Speed Precip Events Conditions
12:51 AM 35.1 °F 31.0 °F 19.0 °F 52% 29.97 in 10.0 mi West 4.6 mph - N/A   Clear
1:51 AM 33.1 °F 26.9 °F 19.9 °F 59% 29.99 in 10.0 mi West 6.9 mph - N/A   Clear
2:51 AM 33.1 °F - 19.9 °F 59% 30.00 in 10.0 mi Calm Calm - N/A   Partly Cloudy
3:51 AM 33.1 °F 27.7 °F 19.9 °F 59% 30.00 in 10.0 mi West 5.8 mph - N/A   Scattered Clouds
4:51 AM 30.9 °F 27.5 °F 19.9 °F 64% 30.01 in 10.0 mi West 3.5 mph - N/A   Scattered Clouds
5:51 AM 30.9 °F 25.2 °F 21.0 °F 67% 30.03 in 10.0 mi West 5.8 mph - N/A   Scattered Clouds
6:51 AM 30.2 °F 22.6 °F 21.2 °F 69% 30.06 in 10.0 mi West 8.1 mph - N/A   Scattered Clouds
7:51 AM 32.0 °F 24.8 °F 21.0 °F 64% 30.07 in 10.0 mi West 8.1 mph - N/A   Mostly Cloudy
8:51 AM 34.0 °F 28.0 °F 21.9 °F 61% 30.10 in 10.0 mi WSW 6.9 mph - N/A   Overcast
9:51 AM 37.0 °F 33.3 °F 21.9 °F 54% 30.10 in 10.0 mi WNW 4.6 mph - N/A   Overcast
10:51 AM 37.9 °F 35.5 °F 21.0 °F 51% 30.08 in 10.0 mi North 3.5 mph - N/A   Overcast
11:51 AM 37.9 °F 32.7 °F 21.9 °F 53% 30.06 in 10.0 mi NNE 6.9 mph - N/A   Overcast
12:51 PM 37.9 °F 34.4 °F 21.9 °F 53% 30.05 in 10.0 mi North 4.6 mph - N/A   Overcast
1:51 PM 39.0 °F - 21.0 °F 49% 30.06 in 10.0 mi Calm Calm - N/A   Overcast
2:51 PM 39.0 °F - 21.0 °F 49% 30.05 in 10.0 mi Calm Calm - N/A   Overcast
3:51 PM 39.0 °F - 21.9 °F 50% 30.05 in 10.0 mi Calm Calm - N/A   Overcast
4:51 PM 39.0 °F 36.8 °F 23.0 °F 53% 30.03 in 10.0 mi SE 3.5 mph - N/A   Overcast
5:51 PM 39.0 °F 36.8 °F 25.0 °F 57% 30.03 in 10.0 mi ESE 3.5 mph - N/A   Overcast
6:51 PM 39.9 °F 35.1 °F 26.1 °F 58% 30.02 in 10.0 mi SSE 6.9 mph - N/A   Overcast
7:03 PM 37.4 °F 32.1 °F 30.2 °F 75% 30.03 in 7.0 mi SE 6.9 mph - 0.00 in Snow Light Snow
7:14 PM 35.6 °F 31.7 °F 30.2 °F 81% 30.02 in 0.5 mi SSE 4.6 mph - 0.00 in Snow Light Snow
7:51 PM 34.0 °F 28.8 °F 32.0 °F 92% 30.01 in 0.5 mi East 5.8 mph - 0.04 in Snow Light Snow
8:04 PM 33.8 °F 29.6 °F 33.8 °F 100% 30.01 in 0.5 mi East 4.6 mph - 0.00 in Snow Light Snow
8:20 PM 33.8 °F 30.8 °F 33.8 °F 100% 30.00 in 0.5 mi ENE 3.5 mph - 0.01 in Snow Light Snow
8:45 PM 33.8 °F 29.6 °F 33.8 °F 100% 29.99 in 1.5 mi ENE 4.6 mph - 0.02 in Snow Light Snow
8:51 PM 34.0 °F 29.8 °F 33.1 °F 96% 29.99 in 1.5 mi ENE 4.6 mph - 0.03 in Snow Light Snow
9:40 PM 33.8 °F 27.7 °F 33.8 °F 100% 29.96 in 2.5 mi North 6.9 mph - 0.02 in Rain Light Rain
9:51 PM 34.0 °F 28.0 °F 33.1 °F 96% 29.97 in 2.5 mi NNE 6.9 mph - 0.02 in Rain Light Rain
10:51 PM 33.8 °F 27.0 °F 33.8 °F 100% 29.96 in 2.5 mi North 8.1 mph - N/A Rain Light Rain
11:51 PM 34.0 °F 26.6 °F 34.0 °F 100% 29.94 in 2.5 mi NNE 9.2 mph - 0.01 in Rain Light Rain